"Pseudo-MPEC" for 7MDT001

Created 2023 Feb 7 14:22:01 UT using Find_Orb

Click here for an explanation of pseudo-MPECs

 
 Astrometry: 
     7MDT001*KC2023 01 11DE3V!9j#jH5Pdt5s$NW*p+F\?\`=QY;PmKQ,;.P=wZ'qI!PxX4n=K19
     7MDT001 KC2023 01 114:y.P_K'rfWe7bK,p!Im\Q?+RI)dAstrometry]x[ql4%CM*$Ep6K19
     7MDT001 KC2023 01 111ax\mI^qptH5%T8cruaSG-gPn1U9[EJwwaDFy;=sc,xqEai@vg0=K19
     7MDT001 6C2023 01 13H:1YIK:nu7l66l5Q/.;a2;V[%R#ipK)'^-,R!(DGrZ:redacted;Z84
     7MDT001 6C2023 01 13.1#sWm4ZIJ9!'(K,eclickSjr_BNhereAfunFi2mrfor8@P+UdT%Z84
     7MDT001 6C2023 01 13#0,_5lJh\w(X%#ETqEDMWkFJ1PUf:dEqN+VcwZexplanation,31Z84

Station data:
(K19) PASTIS Observatory, Banon  (N43.999459 E5.647310)  France.  Observer C.
   Demeautis. 0.16-m f/3.3 reflector + CCD.
(Z84) Calar Alto-Schmidt  (N37.224046 W2.548210)  Spain.  Observer E. Schwab.
   Measurers E. Schwab, D. Koschny, M. Micheli. 0.8-m f/3 Schmidt + CCD.

Orbital elements:  7MDT001
   Perihelion 2023 Feb 7.25274 +/- 60.9 TT =  6:03:56 (JD 2459982.75274)
Epoch 2023 Jan 13.0 TT = JDT 2459957.5   Earth MOID: 0.0002   Ma: 0.0131
M 344.20079800 +/- 80               (J2000 ecliptic)             AutoNEOCP
n   0.62564318 +/- 1.85             Peri.  191.90949 +/- 31
a   1.35389474 +/- 2.66             Node   306.66638 +/- 70
e   0.2754726 +/- 1.46              Incl.    0.67023 +/- 2.3
P   1.58/575.40d           H 24.75  G  0.15   U 13.2
q 0.98093372 +/- 0.0497    Q 1.72685577 +/- 5.37
4 of 6 observations 2023 Jan. 11-13 (46.2 hr); mean residual 0".23
Residuals in arcseconds: 
230111 K19  .26+  .08+    230111 K19  .26+  .07+    230113 Z84  .00   .00     
230111 K19  .51-  .15-    230113 Z84( 2.5-  .54-)   230113 Z84( 2.4+  .23+)   

Ephemerides (geocentric):
Date (UTC) HH   RA             Dec           delta  r     elong  mag " sig PA
---- --------  ------------   ------------  ------ ------ -----  --- --------
2023 02 07 14  16 02 31.337   -28 40 09.03  .01454 .98234  74.1 19.5 171d 125
2023 02 07 15  16 02 12.599   -28 37 49.50  .01463 .98235  74.2 19.5 171d 125
2023 02 07 16  16 01 54.115   -28 35 31.56  .01472 .98236  74.3 19.5 171d 125
2023 02 07 17  16 01 35.881   -28 33 15.19  .01481 .98237  74.4 19.5 171d 125
2023 02 07 18  16 01 17.892   -28 31 00.37  .01491 .98239  74.6 19.5 171d 125
2023 02 07 19  16 01 00.143   -28 28 47.06  .01500 .98240  74.7 19.5 171d 126
2023 02 07 20  16 00 42.630   -28 26 35.25  .01509 .98241  74.8 19.5 171d 126
2023 02 07 21  16 00 25.349   -28 24 24.91  .01518 .98242  74.9 19.5 171d 126
2023 02 07 22  16 00 08.293   -28 22 16.02  .01527 .98244  75.0 19.5 171d 126
2023 02 07 23  15 59 51.461   -28 20 08.56  .01536 .98245  75.1 19.5 171d 126
2023 02 08 00  15 59 34.847   -28 18 02.49  .01545 .98246  75.2 19.5 171d 126
2023 02 08 01  15 59 18.447   -28 15 57.81  .01555 .98248  75.3 19.5 172d 126
2023 02 08 02  15 59 02.258   -28 13 54.49  .01564 .98249  75.4 19.5 172d 126
2023 02 08 03  15 58 46.275   -28 11 52.50  .01573 .98250  75.5 19.6 172d 126
2023 02 08 04  15 58 30.494   -28 09 51.84  .01582 .98252  75.6 19.6 172d 127
2023 02 08 05  15 58 14.913   -28 07 52.47  .01591 .98253  75.7 19.6 172d 127
2023 02 08 06  15 57 59.528   -28 05 54.38  .01600 .98255  75.8 19.6 172d 127
2023 02 08 07  15 57 44.334   -28 03 57.54  .01609 .98256  75.9 19.6 172d 127
2023 02 08 08  15 57 29.329   -28 02 01.95  .01618 .98257  76.0 19.6 172d 127
2023 02 08 09  15 57 14.509   -28 00 07.58  .01628 .98259  76.2 19.6 172d 127
2023 02 08 10  15 56 59.871   -27 58 14.40  .01637 .98260  76.3 19.6 172d 127
2023 02 08 11  15 56 45.412   -27 56 22.42  .01646 .98262  76.4 19.6 172d 127
2023 02 08 12  15 56 31.128   -27 54 31.60  .01655 .98263  76.4 19.6 172d 127
2023 02 08 13  15 56 17.017   -27 52 41.93  .01664 .98265  76.5 19.6 172d 128
2023 02 08 14  15 56 03.075   -27 50 53.39  .01673 .98266  76.6 19.6 172d 128
2023 02 08 15  15 55 49.300   -27 49 05.96  .01682 .98268  76.7 19.6 173d 128
2023 02 08 16  15 55 35.689   -27 47 19.64  .01692 .98269  76.8 19.6 173d 128
2023 02 08 17  15 55 22.239   -27 45 34.40  .01701 .98271  76.9 19.6 173d 128
2023 02 08 18  15 55 08.947   -27 43 50.22  .01710 .98273  77.0 19.7 173d 128
2023 02 08 19  15 54 55.811   -27 42 07.10  .01719 .98274  77.1 19.7 173d 128
2023 02 08 20  15 54 42.828   -27 40 25.02  .01728 .98276  77.2 19.7 173d 128
2023 02 08 21  15 54 29.996   -27 38 43.95  .01737 .98277  77.3 19.7 173d 128
2023 02 08 22  15 54 17.311   -27 37 03.90  .01746 .98279  77.4 19.7 173d 128
2023 02 08 23  15 54 04.772   -27 35 24.83  .01756 .98281  77.5 19.7 173d 129
2023 02 09 00  15 53 52.376   -27 33 46.75  .01765 .98282  77.6 19.7 173d 129
2023 02 09 01  15 53 40.120   -27 32 09.63  .01774 .98284  77.7 19.7 173d 129
2023 02 09 02  15 53 28.004   -27 30 33.46  .01783 .98286  77.8 19.7 173d 129
2023 02 09 03  15 53 16.023   -27 28 58.23  .01792 .98287  77.9 19.7 173d 129
2023 02 09 04  15 53 04.177   -27 27 23.92  .01801 .98289  78.0 19.7 173d 129
2023 02 09 05  15 52 52.463   -27 25 50.53  .01810 .98291  78.0 19.7 173d 129
2023 02 09 06  15 52 40.878   -27 24 18.03  .01820 .98293  78.1 19.7 173d 129
2023 02 09 07  15 52 29.421   -27 22 46.42  .01829 .98294  78.2 19.7 173d 130
2023 02 09 08  15 52 18.090   -27 21 15.69  .01838 .98296  78.3 19.7 174d 130
2023 02 09 09  15 52 06.883   -27 19 45.82  .01847 .98298  78.4 19.8 174d 130
2023 02 09 10  15 51 55.797   -27 18 16.79  .01856 .98300  78.5 19.8 174d 130
2023 02 09 11  15 51 44.832   -27 16 48.61  .01865 .98302  78.6 19.8 174d 130
2023 02 09 12  15 51 33.984   -27 15 21.26  .01874 .98304  78.7 19.8 174d 130
2023 02 09 13  15 51 23.253   -27 13 54.72  .01884 .98305  78.7 19.8 174d 130